HUBBLE
1 20580U 90037B 08226.61608713 .00000279 00000-0 86842-5 0 02101
2 20580 028.4696 308.6497 0003639 269.8155 090.2018 15.00398783803618
PO-34
1 25520U 98064B 08227.87159563 .00000323 00000-0 61277-5 0 586
2 25520 028.4586 145.8859 0005604 203.7885 156.2447 15.17217913542082
ISS
1 25544U 98067A 08227.51110226 .00011863 00000-0 97258-4 0 554
2 25544 051.6448 076.8280 0008059 018.2040 075.2824 15.70962716557715
CO-58
1 28895U 05043F 08226.90702466 .00000173 00000-0 45791-4 0 00965
2 28895 098.0930 119.5328 0016764 227.0868 132.8934 14.59689284148907
NCUBE2
1 28897U 05043H 08226.65916135 .00000052 00000-0 20412-4 0 06267
2 28897 098.0881 119.2160 0016220 229.6863 130.2923 14.59860691141158
FALCON
1 30776U 07006E 08227.89709120 .00000255 00000-0 21586-4 0 3757
2 30776 035.4329 157.4195 0000335 193.1661 166.9047 15.03033335 78982
MAST
1 31126U 07012K 08227.75822458 -.00000002 00000-0 10155-4 0 3985
2 31126 098.0342 289.8404 0095663 149.8789 210.7942 14.53439575 70526
CAPE1
1 31130U 07012P 08226.94079526 -.00000005 00000-0 94672-5 0 03924
2 31130 098.0349 287.9347 0104223 155.5204 205.0988 14.51984357070104
CUTE1-7
1 32785U 08021C 08227.20889243 .00000242 00000-0 37811-4 0 1298
2 32785 097.9890 286.9761 0014357 312.2338 047.7652 14.81383393 15998
COMPASS
1 32787U 08021E 08227.20494650 .00000264 00000-0 40599-4 0 1194
2 32787 097.9841 286.9205 0015244 313.2211 046.7724 14.81445934 15995
AAUSAT2
1 32788U 08021F 08227.87241271 .00000201 00000-0 32405-4 0 1207
2 32788 097.9850 287.6002 0014274 313.4718 046.5350 14.81555440 16094
DO-64
1 32789U 08021G 08227.88133915 .00000459 00000-0 65399-4 0 1296
2 32789 097.9878 287.6333 0014887 309.9954 049.9948 14.81449601 16095
SEEDS
1 32791U 08021J 08227.89069015 .00000133 00000-0 23908-4 0 1164
2 32791 097.9869 287.6183 0015368 308.1204 051.8618 14.81302254 16060
CANX-2
1 32797U 08021L 08226.10209254 .00001673 00000-0 21762-3 0 00630
2 32797 097.9942 285.9583 0015611 319.8527 040.1563 14.81933659014518
RS-30
1 32953U 08025A 08226.71877533 .00000010 00000-0 00000-0 0 00820
2 32953 082.4983 087.8157 0019423 126.6198 233.6668 12.42996914010198
